DW7220 Vero Beach FL US current weather conditions

sailwx.info

Wind from 341 at 4 knots gusting 13

Air temperature 26.7° C
Dewpoint 24.5° C

Last reported at 2019-Oct-23 20:00 UTC.
Time now 2019-Oct-23 20:23 UTC

Location: N 27°37' W 080°24'.
View on Google Maps.

See reports from other nearby stations

  
Tides and Currents Weather Stations Pressure Air Temp Water Temp Dewpoint Dewpoint Depression Visibility Wind Speed Wind Dir Waves Ship Positions
date/time (UTC)wind fromknots sea level pressurealtimeterstation pressurevisibilityair tempwater tempwave heightnotes
2019-Oct-23 20:00 341 4 gusting 13 26.7
2019-Oct-23 19:45 032 10 gusting 16 26.7
2019-Oct-23 19:30 056 7 gusting 12 27.2
2019-Oct-23 19:15 053 6 gusting 10 27.8
2019-Oct-23 19:00 049 4 gusting 15 28.3
2019-Oct-23 18:45 033 6 gusting 13 27.8
2019-Oct-23 18:31 008 5 gusting 12 27.8
2019-Oct-23 18:15 001 6 gusting 12 27.8
2019-Oct-23 18:01 327 7 gusting 13 27.2
2019-Oct-23 17:45 026 6 gusting 14 27.2
2019-Oct-23 17:30 056 7 gusting 14 27.8
2019-Oct-23 17:15 287 6 gusting 14 27.8
2019-Oct-23 17:00 019 6 gusting 12 27.8
2019-Oct-23 16:45 013 6 gusting 15 27.8
2019-Oct-23 16:16 329 7 gusting 15 28.3
2019-Oct-23 16:00 025 3 gusting 14 28.3
2019-Oct-23 15:45 359 7 gusting 16 28.3
2019-Oct-23 15:31 349 6 gusting 13 27.8
2019-Oct-23 15:15 025 6 gusting 13 27.8
2019-Oct-23 15:00 344 6 gusting 13 27.2
2019-Oct-23 14:46 344 5 gusting 13 27.2
2019-Oct-23 14:30 277 6 gusting 11 26.7
2019-Oct-23 14:15 343 7 gusting 13 26.7
2019-Oct-23 14:00 322 6 gusting 13 26.7
2019-Oct-23 13:45 357 6 gusting 13 26.7
2019-Oct-23 13:31 359 4 gusting 13 26.7
2019-Oct-23 13:17 008 4 gusting 9 26.1
2019-Oct-23 13:01 336 6 gusting 12 26.1
2019-Oct-23 12:46 006 4 gusting 8 25.6
2019-Oct-23 12:32 350 1 gusting 4 24.4
2019-Oct-23 12:16 309 0 gusting 2 23.9
2019-Oct-23 12:01 288 23.9
2019-Oct-23 11:46 288 0 gusting 2 23.3
2019-Oct-23 11:31 312 23.3
2019-Oct-23 11:16 312 23.3
2019-Oct-23 11:01 321 0 gusting 1 23.3
2019-Oct-23 10:47 305 23.3
2019-Oct-23 10:31 305 23.9
2019-Oct-23 10:16 313 0 gusting 4 23.9
2019-Oct-23 10:01 293 1 gusting 3 23.9
2019-Oct-23 09:47 285 0 gusting 4 23.9
2019-Oct-23 09:31 272 0 gusting 1 23.9
2019-Oct-23 09:16 273 23.9
2019-Oct-23 09:01 273 23.9
2019-Oct-23 08:45 270 23.9
2019-Oct-23 08:31 270 23.9
2019-Oct-23 08:16 270 23.9
2019-Oct-23 08:01 270 0 gusting 1 23.9
2019-Oct-23 07:46 270 24.4
2019-Oct-23 07:31 271 0 gusting 2 24.4
2019-Oct-23 07:16 285 1 gusting 3 24.4
2019-Oct-23 07:00 271 23.9
2019-Oct-23 06:45 273 0 gusting 1 23.9
2019-Oct-23 06:31 256 23.9
2019-Oct-23 06:16 256 23.9
2019-Oct-23 06:00 256 23.9
2019-Oct-23 05:46 256 24.4
2019-Oct-23 05:30 256 24.4
2019-Oct-23 05:15 256 24.4
2019-Oct-23 04:45 250 0 gusting 1 25.0
2019-Oct-23 04:30 249 0 gusting 2 25.0
2019-Oct-23 04:15 252 25.0
2019-Oct-23 04:00 252 0 gusting 1 25.6
2019-Oct-23 03:45 263 25.6
2019-Oct-23 03:30 263 25.6
2019-Oct-23 03:15 263 26.1
2019-Oct-23 03:00 264 0 gusting 1 26.1
2019-Oct-23 02:45 246 26.1
2019-Oct-23 02:30 246 26.7
2019-Oct-23 02:15 263 0 gusting 2 26.7
2019-Oct-23 02:00 266 1 gusting 4 26.7
2019-Oct-23 01:46 281 2 gusting 6 27.2
2019-Oct-23 01:32 240 3 gusting 6 27.2
2019-Oct-23 01:16 176 27.2
2019-Oct-23 01:03 145 1 gusting 8 27.2
2019-Oct-23 00:46 143 27.2
2019-Oct-23 00:31 142 0 gusting 4 27.2
2019-Oct-23 00:16 136 1 gusting 3 27.2
2019-Oct-23 00:02 101 2 gusting 4 27.8
2019-Oct-22 23:47 127 2 gusting 5 27.8
2019-Oct-22 23:32 122 1 gusting 3 27.8
2019-Oct-22 23:17 111 2 gusting 5 28.3
2019-Oct-22 23:01 126 1 gusting 4 28.3
2019-Oct-22 22:46 114 2 gusting 6 28.9
2019-Oct-22 22:32 139 3 gusting 4 28.9
2019-Oct-22 22:17 121 1 gusting 4 29.4
2019-Oct-22 22:02 132 1 gusting 6 29.4
2019-Oct-22 21:47 145 3 gusting 5 30.6
2019-Oct-22 21:32 129 1 gusting 5 30.6
2019-Oct-22 21:16 132 3 gusting 6 30.6
2019-Oct-22 21:01 218 2 gusting 6 30.0
2019-Oct-22 20:47 110 4 gusting 6 30.6
2019-Oct-22 20:32 127 4 gusting 9 30.6
2019-Oct-22 20:16 108 6 gusting 10 30.6
2019-Oct-22 20:01 125 4 gusting 9 30.6
2019-Oct-22 19:46 094 3 gusting 12 30.6
2019-Oct-22 19:31 119 5 gusting 9 30.6
2019-Oct-22 19:16 105 1 gusting 9 31.1
2019-Oct-22 19:01 082 3 gusting 6 31.7
2019-Oct-22 18:46 101 3 gusting 6 30.6
2019-Oct-22 18:31 110 2 gusting 6 30.0
2019-Oct-22 18:16 127 7 gusting 13 30.0
2019-Oct-22 18:01 103 6 gusting 13 30.0
2019-Oct-22 17:46 084 6 gusting 10 30.0
2019-Oct-22 17:31 120 4 gusting 7 30.6
2019-Oct-22 17:16 122 3 gusting 7 30.6
2019-Oct-22 17:03 108 5 gusting 6 30.6
2019-Oct-22 16:45 145 0 gusting 4 31.1
2019-Oct-22 16:30 148 0 gusting 4 31.1
2019-Oct-22 16:15 161 0 gusting 3 31.7
2019-Oct-22 16:00 311 1 gusting 5 31.1
2019-Oct-22 15:45 243 2 gusting 7 31.1
2019-Oct-22 15:30 240 2 gusting 5 30.6
2019-Oct-22 15:15 214 2 gusting 5 30.0
2019-Oct-22 15:00 212 0 gusting 5 29.4
2019-Oct-22 14:45 215 1 gusting 4 29.4
2019-Oct-22 14:30 212 3 gusting 6 28.9
2019-Oct-22 14:17 160 1 gusting 5 28.9
2019-Oct-22 14:01 263 0 gusting 6 27.8
2019-Oct-22 13:46 260 1 gusting 4 27.2
2019-Oct-22 13:31 208 0 gusting 4 26.7
2019-Oct-22 13:17 245 1 gusting 2 26.1
2019-Oct-22 13:02 194 26.1
2019-Oct-22 12:46 164 25.6
2019-Oct-22 12:30 153 25.6
2019-Oct-22 12:16 160 25.0
2019-Oct-22 12:01 124 25.0
2019-Oct-22 11:45 124 25.0
2019-Oct-22 11:31 160 25.0
2019-Oct-22 11:15 136 25.0
2019-Oct-22 11:01 134 25.0
2019-Oct-22 10:45 134 25.0
2019-Oct-22 10:31 153 25.0
2019-Oct-22 10:16 136 25.0
2019-Oct-22 10:00 134 25.0
2019-Oct-22 09:45 134 25.0
2019-Oct-22 09:30 134 25.0
2019-Oct-22 09:15 223 25.0
2019-Oct-22 09:01 243 25.0
2019-Oct-22 08:45 245 25.0
2019-Oct-22 08:30 257 25.6
2019-Oct-22 08:15 257 25.6
2019-Oct-22 08:00 257 25.6
2019-Oct-22 07:45 257 25.6
2019-Oct-22 07:30 257 25.6
2019-Oct-22 07:15 257 25.6
2019-Oct-22 07:00 257 25.6
2019-Oct-22 06:45 257 1 gusting 3 25.6
2019-Oct-22 06:30 129 0 gusting 5 26.1
2019-Oct-22 06:15 243 0 gusting 3 26.1
2019-Oct-22 06:00 143 26.1
2019-Oct-22 05:47 142 26.1
2019-Oct-22 05:32 142 26.1
2019-Oct-22 05:18 143 26.1
2019-Oct-22 05:01 142 26.1
2019-Oct-22 04:47 143 26.1
2019-Oct-22 04:31 142 26.1
2019-Oct-22 04:16 143 26.1
2019-Oct-22 04:02 143 26.1
2019-Oct-22 03:46 143 26.7
2019-Oct-22 03:31 159 26.7
2019-Oct-22 03:16 131 26.7
2019-Oct-22 03:01 138 0 gusting 2 26.7
2019-Oct-22 02:46 153 26.7
2019-Oct-22 02:31 174 0 gusting 4 27.2
2019-Oct-22 02:16 126 0 gusting 3 27.2
2019-Oct-22 02:01 134 0 gusting 3 27.2
2019-Oct-22 01:45 152 0 gusting 4 27.2
2019-Oct-22 01:31 134 0 gusting 5 27.2
2019-Oct-22 01:16 130 1 gusting 6 27.8
2019-Oct-22 01:01 119 2 gusting 5 27.8
2019-Oct-22 00:46 146 3 gusting 6 27.8
2019-Oct-22 00:31 119 2 gusting 6 27.8
2019-Oct-22 00:17 122 4 gusting 7 27.8
2019-Oct-22 00:01 120 3 gusting 6 27.8
2019-Oct-21 23:45 126 4 gusting 8 27.8
2019-Oct-21 23:32 146 5 gusting 8 27.8
2019-Oct-21 23:16 133 4 gusting 8 28.3
2019-Oct-21 23:01 117 4 gusting 5 28.3
2019-Oct-21 22:46 117 3 gusting 8 28.3
2019-Oct-21 22:31 135 4 gusting 6 28.9
2019-Oct-21 22:15 126 3 gusting 6 29.4
2019-Oct-21 22:01 114 3 gusting 8 29.4
2019-Oct-21 21:46 114 5 gusting 11 29.4
2019-Oct-21 21:31 114 5 gusting 8 30.0
2019-Oct-21 21:16 065 6 gusting 9 30.0
2019-Oct-21 21:01 126 6 gusting 10 30.6
2019-Oct-21 20:46 128 2 gusting 6 31.1
2019-Oct-21 20:31 158 3 gusting 7 31.1
2019-Oct-21 20:16 111 3 gusting 6 31.1
2019-Oct-21 20:00 087 0 gusting 5 32.8